This demonstration page uses our WeatherBlox Daily Observations layout. Learn more.

Left ArrowRight Arrow

31.84235, -102.49876

Hourly Observations for March 18, 2017

Temp ( °F °C ) Dew Point ( °F °C ) Humidity (%) Winds ( mph kmh ) Pressure ( in mb ) Visibility ( mi km ) Precip ( " mm )
12:53 am 00:53 Clear 68 20 55 12.8 63 63 SSW 9 15 30.04 1017 9 14 0.00 0.00
1:53 am 01:53 Clear 67 19.4 56 13.3 68 68 SSW 12 19 30.04 1017 10 16 0.00 0.00
2:53 am 02:53 Clear 66 18.9 54 12.2 65 65 SSW 14 22 30.04 1017 10 16 0.00 0.00
3:53 am 03:53 Clear 65 18.3 53 11.7 66 66 SSW 7 11 30.04 1017 10 16 0.00 0.00
4:53 am 04:53 Clear 63 17.2 53 11.7 70 70 W 3 6 30.05 1018 10 16 0.00 0.00
5:53 am 05:53 Clear 55 12.8 50 10 83 83 NE 8 13 30.08 1019 10 16 0.00 0.00
6:53 am 06:53 Clear 53 11.7 47 8.3 80 80 ENE 10 17 30.10 1019 10 16 0.00 0.00
7:53 am 07:53 Clear 53 11.7 47 8.3 80 80 NE 9 15 30.12 1020 10 16 0.00 0.00
8:53 am 08:53 Sunny 58 14.4 50 10 75 75 NE 7 11 30.14 1021 10 16 0.00 0.00
9:53 am 09:53 Sunny 65 18.3 54 12.2 68 68 E 7 11 30.17 1022 10 16 0.00 0.00
10:53 am 10:53 Sunny 69 20.6 54 12.2 59 59 ESE 7 11 30.19 1022 10 16 0.00 0.00
11:53 am 11:53 Sunny 71 21.7 55 12.8 57 57 SSE 6 9 30.19 1023 10 16 0.00 0.00
12:53 pm 12:53 Sunny 74 23.3 56 13.3 54 54 SSE 8 13 30.18 1022 10 16 0.00 0.00
1:53 pm 13:53 Sunny 76 24.4 56 13.3 50 50 SE 9 15 30.16 1021 10 16 0.00 0.00
2:53 pm 14:53 Sunny 79 26.1 55 12.8 44 44 SSE 8 13 30.13 1020 10 16 0.00 0.00
3:53 pm 15:53 Sunny 81 27.2 54 12.2 39 39 SSE 7 11 30.10 1019 10 16 0.00 0.00
4:53 pm 16:53 Sunny 84 28.9 49 9.4 30 30 SE 14 22 30.08 1019 10 16 0.00 0.00
5:53 pm 17:53 Sunny 84 28.9 48 8.9 29 29 SSE 14 22 30.07 1018 10 16 0.00 0.00
6:53 pm 18:53 Sunny 82 27.8 47 8.3 29 29 SSE 13 20 30.08 1019 10 16 0.00 0.00
7:53 pm 19:53 Sunny 79 26.1 48 8.9 34 34 SSE 12 19 30.08 1019 10 16 0.00 0.00
8:53 pm 20:53 Clear 76 24.4 48 8.9 37 37 S 13 20 30.09 1019 10 16 0.00 0.00
9:53 pm 21:53 Clear 73 22.8 50 10 44 44 S 15 24 30.11 1020 10 16 0.00 0.00
10:53 pm 22:53 Clear 70 21.1 51 10.6 51 51 S 9 15 30.11 1020 10 16 0.00 0.00
11:53 pm 23:53 Clear 68 20 53 11.7 59 59 S 14 22 30.11 1020 10 16 0.00 0.00

Powered by AerisWeather